This is the latest recevied weather packets stored in our database for station/object IZ5MMH-1. If no packets are shown the sender has not sent any weather packets the latest 10 day(s).
| Time | Temp. | Humidity | Pressure | Rain* | Wind** | Luminosity | Snow |
|---|---|---|---|---|---|---|---|
| 1787564301 | 35.56° C | 26% | 1016.5 hPa | - | - | - | - |
| 1787563701 | 35° C | 26% | 1016.4 hPa | - | - | - | - |
| 1787563100 | 35° C | 27% | 1016.5 hPa | - | - | - | - |
| 1787562500 | 34.44° C | 27% | 1016.7 hPa | - | - | - | - |
| 1787561901 | 34.44° C | 28% | 1016.8 hPa | - | - | - | - |
| 1787561301 | 33.89° C | 29% | 1016.8 hPa | - | - | - | - |
| 1787560700 | 33.33° C | 30% | 1016.6 hPa | - | - | - | - |
| 1787560101 | 33.33° C | 30% | 1016.7 hPa | - | - | - | - |
| 1787559501 | 32.78° C | 30% | 1016.7 hPa | - | - | - | - |
| 1787558901 | 32.22° C | 31% | 1016.6 hPa | - | - | - | - |
| 1787558301 | 31.67° C | 31% | 1016.5 hPa | - | - | - | - |
| 1787557700 | 31.11° C | 31% | 1016.5 hPa | - | - | - | - |
| 1787557102 | 31.11° C | 32% | 1016.5 hPa | - | - | - | - |
| 1787556500 | 31.11° C | 33% | 1016.6 hPa | - | - | - | - |
| 1787555904 | 31.11° C | 33% | 1016.6 hPa | - | - | - | - |
| 1787555301 | 31.11° C | 34% | 1016.6 hPa | - | - | - | - |
| 1787554700 | 31.11° C | 35% | 1016.7 hPa | - | - | - | - |
| 1787554101 | 30.56° C | 35% | 1016.7 hPa | - | - | - | - |
| 1787553500 | 30.56° C | 35% | 1016.6 hPa | - | - | - | - |
| 1787552900 | 29.44° C | 39% | 1016.6 hPa | - | - | - | - |
| 1787552300 | 28.89° C | 40% | 1016.5 hPa | - | - | - | - |
| 1787551701 | 27.78° C | 42% | 1016.5 hPa | - | - | - | - |
| 1787551100 | 27.22° C | 44% | 1016.5 hPa | - | - | - | - |
| 1787550500 | 25.56° C | 44% | 1016.6 hPa | - | - | - | - |
| 1787549902 | 23.89° C | 48% | 1016.6 hPa | - | - | - | - |
* Rain since midnight (hover to see other rain measurements)
** Current wind speed in m/s (hover to see current wind gust speed)